Date String (YYYY-MM-DD hh:mm:ss) UTC,Instrument flags,absolute air pressure of the measurement (hPa),sample flow rate (lpm),inlet stack bypass flow (lpm),air temperature of the measurement (°C),ambient temperature measured by the external sensor (°C),aerosol sample conditioner tube jacket temperature (°C),OPC LED temperature (°C),internal box temperature (°C),relative humidity of the measurement (%),span deviation,mass concentration of particles derived from Lorenz-Mie calculation of OPC scattering (μg/m³),mass concentration of particles derived from Lorenz-Mie calculation of OPC scattering (μg/m³),mass concentration of particles derived from Lorenz-Mie calculation of OPC scattering (μg/m³)
DateTimeUTC,F1_M11,P_M11,Q1_M11,Q2_M11,T1_M11,T2_M11,T3_M11,T4_M11,T5_M11,U1_M11,ZSPAN_M11,X0_M11,X2_M11,X1_M11
2023-06-04 21:00:00,SystemResetWarning,0835.3,5.01,000.00,030.4,028.9,000.0,038.7,032.0,31.8,0000.0,0003.40,0001.85,0001.50
2023-06-04 21:01:00,SystemResetWarning,0835.3,5.00,000.00,030.4,028.9,000.0,038.7,032.0,31.7,0000.0,0002.86,0001.85,0001.52
2023-06-04 21:02:00,SystemResetWarning,0835.4,5.01,000.00,030.4,028.9,000.0,038.8,032.0,31.6,0000.0,0002.87,0001.90,0001.55
2023-06-04 21:03:00,SystemResetWarning,0835.4,5.00,000.00,030.4,028.9,000.0,038.8,032.0,31.5,0000.0,0002.65,0001.92,0001.55
2023-06-04 21:04:00,SystemResetWarning,0835.3,5.00,000.00,030.4,028.9,000.0,038.8,032.0,31.3,0000.0,0002.50,0001.94,0001.59
2023-06-04 21:05:00,SystemResetWarning,0835.3,5.01,000.00,030.4,028.9,000.0,038.8,032.0,31.3,0000.0,0002.48,0001.94,0001.60
2023-06-04 21:06:00,SystemResetWarning,0835.4,5.00,000.00,030.4,028.9,000.0,038.8,032.0,31.3,0000.0,0002.47,0001.94,0001.61
2023-06-04 21:07:00,SystemResetWarning,0835.2,5.00,000.00,030.4,028.9,000.0,038.8,032.0,31.4,0000.0,0002.91,0001.95,0001.63
2023-06-04 21:08:00,SystemResetWarning,0835.3,5.00,000.00,030.4,028.9,000.0,038.8,032.0,31.0,0000.0,0003.12,0001.97,0001.64
2023-06-04 21:09:00,SystemResetWarning,0835.4,5.00,000.00,030.4,029.0,000.0,038.8,032.0,31.0,0000.0,0003.08,0001.96,0001.65
2023-06-04 21:10:00,SystemResetWarning,0835.3,5.00,000.00,030.4,029.0,000.0,038.8,032.0,31.2,0000.0,0003.06,0001.95,0001.63
2023-06-04 21:11:00,SystemResetWarning,0835.2,5.00,000.00,030.4,029.0,000.0,038.8,032.0,30.7,0000.0,0003.05,0001.94,0001.63
2023-06-04 21:12:00,SystemResetWarning,0835.2,5.00,000.00,030.4,029.0,000.0,038.8,032.0,30.5,0000.0,0003.05,0001.95,0001.63
2023-06-04 21:13:00,SystemResetWarning,0835.3,5.00,000.00,030.4,029.0,000.0,038.8,032.0,30.7,0000.0,0003.02,0001.95,0001.64
2023-06-04 21:14:00,SystemResetWarning,0835.3,5.00,000.00,030.4,029.0,000.0,038.8,032.0,30.7,0000.0,0002.98,0001.95,0001.66
2023-06-04 21:15:00,SystemResetWarning,0835.3,5.00,000.00,030.4,029.0,000.0,038.8,032.0,30.5,0000.0,0003.00,0001.94,0001.66
2023-06-04 21:16:00,SystemResetWarning,0835.3,5.00,000.00,030.5,029.0,000.0,038.8,032.0,30.1,0000.0,0003.05,0001.95,0001.67
2023-06-04 21:17:00,SystemResetWarning,0835.2,5.01,000.00,030.5,029.0,000.0,038.8,032.0,30.7,0000.0,0003.12,0001.98,0001.71
2023-06-04 21:18:00,SystemResetWarning,0835.2,5.01,000.00,030.5,029.0,000.0,038.8,032.1,30.8,0000.0,0002.80,0002.05,0001.75
2023-06-04 21:19:00,SystemResetWarning,0835.1,5.00,000.00,030.5,029.0,000.0,038.9,032.1,30.9,0000.0,0002.73,0002.14,0001.82
2023-06-04 21:20:00,SystemResetWarning,0835.1,5.01,000.00,030.5,029.0,000.0,038.9,032.1,30.9,0000.0,0002.82,0002.20,0001.90
2023-06-04 21:21:00,SystemResetWarning,0835.1,5.00,000.00,030.5,029.0,000.0,038.9,032.1,31.4,0000.0,0002.99,0002.30,0001.97
2023-06-04 21:22:00,SystemResetWarning,0835.1,5.00,000.00,030.5,029.0,000.0,038.9,032.1,30.8,0000.0,0003.24,0002.43,0002.04
2023-06-04 21:23:00,SystemResetWarning,0835.1,4.99,000.00,030.5,029.0,000.0,038.9,032.1,30.7,0000.0,0003.31,0002.49,0002.10
2023-06-04 21:24:00,SystemResetWarning,0834.8,4.99,000.00,030.5,029.1,000.0,038.9,032.1,30.7,0000.0,0003.29,0002.50,0002.15
2023-06-04 21:25:00,SystemResetWarning,0834.7,5.01,000.00,030.5,029.1,000.0,038.9,032.1,31.1,0000.0,0003.32,0002.55,0002.20
2023-06-04 21:26:00,SystemResetWarning,0834.8,5.01,000.00,030.5,029.1,000.0,038.9,032.1,30.8,0000.0,0003.44,0002.66,0002.30
2023-06-04 21:27:00,SystemResetWarning,0835.1,5.01,000.00,030.5,029.1,000.0,038.9,032.1,31.0,0000.0,0003.46,0002.74,0002.38
2023-06-04 21:28:00,SystemResetWarning,0834.9,5.01,000.00,030.5,029.1,000.0,038.9,032.1,31.0,0000.0,0003.49,0002.81,0002.47
2023-06-04 21:29:00,SystemResetWarning,0834.9,4.98,000.00,030.5,029.1,000.0,038.9,032.1,31.1,0000.0,0003.51,0002.85,0002.53
2023-06-04 21:30:00,SystemResetWarning,0834.7,5.02,000.00,030.5,029.1,000.0,038.9,032.1,30.7,0000.0,0003.60,0002.89,0002.56
2023-06-04 21:31:00,SystemResetWarning,0834.7,5.01,000.00,030.5,029.1,000.0,038.9,032.1,29.9,0000.0,0003.53,0002.90,0002.57
2023-06-04 21:32:00,SystemResetWarning,0834.7,5.00,000.00,030.5,029.1,000.0,038.9,032.1,30.7,0000.0,0003.53,0002.91,0002.59
2023-06-04 21:33:00,SystemResetWarning,0834.7,4.98,000.00,030.5,029.1,000.0,038.9,032.1,30.5,0000.0,0003.47,0002.91,0002.63
2023-06-04 21:34:00,SystemResetWarning,0835.0,4.99,000.00,030.5,029.1,000.0,038.9,032.1,30.4,0000.0,0003.63,0002.97,0002.68
2023-06-04 21:35:00,SystemResetWarning,0834.9,5.00,000.00,030.5,029.1,000.0,038.9,032.1,30.6,0000.0,0003.67,0003.02,0002.72
2023-06-04 21:36:00,SystemResetWarning,0834.9,5.00,000.00,030.6,029.1,000.0,038.9,032.1,30.4,0000.0,0004.24,0003.09,0002.78
2023-06-04 21:37:00,SystemResetWarning,0834.7,5.01,000.00,030.6,029.1,000.0,038.9,032.1,30.8,0000.0,0004.73,0003.12,0002.80
2023-06-04 21:38:00,SystemResetWarning,0834.8,5.01,000.00,030.6,029.1,000.0,039.0,032.1,30.8,0000.0,0004.83,0003.15,0002.84
2023-06-04 21:39:00,SystemResetWarning,0834.8,5.00,000.00,030.6,029.1,000.0,039.0,032.1,30.0,0000.0,0004.77,0003.14,0002.83
2023-06-04 21:40:00,SystemResetWarning,0834.8,5.00,000.00,030.6,029.1,000.0,039.0,032.1,29.8,0000.0,0004.77,0003.14,0002.81
2023-06-04 21:41:00,SystemResetWarning,0834.8,4.99,000.00,030.6,029.1,000.0,039.0,032.2,30.3,0000.0,0004.64,0003.13,0002.82
2023-06-04 21:42:00,SystemResetWarning,0834.8,5.00,000.00,030.6,029.1,000.0,039.0,032.2,30.1,0000.0,0004.62,0003.14,0002.85
2023-06-04 21:43:00,SystemResetWarning,0834.8,5.00,000.00,030.6,029.1,000.0,039.0,032.2,29.8,0000.0,0004.63,0003.15,0002.89
2023-06-04 21:44:00,SystemResetWarning,0834.8,5.00,000.00,030.6,029.1,000.0,039.0,032.2,29.6,0000.0,0004.58,0003.16,0002.92
2023-06-04 21:45:00,SystemResetWarning,0834.7,5.00,000.00,030.6,029.1,000.0,039.0,032.2,29.6,0000.0,0004.55,0003.17,0002.94
2023-06-04 21:46:00,SystemResetWarning,0834.8,5.01,000.00,030.6,029.1,000.0,039.0,032.2,29.6,0000.0,0004.59,0003.19,0002.99
2023-06-04 21:47:00,SystemResetWarning,0834.8,5.01,000.00,030.6,029.1,000.0,039.0,032.2,29.5,0000.0,0004.63,0003.21,0003.03
2023-06-04 21:48:00,SystemResetWarning,0834.7,5.00,000.00,030.6,029.1,000.0,039.0,032.2,29.6,0000.0,0005.05,0003.23,0003.07
2023-06-04 21:49:00,SystemResetWarning,0834.7,5.01,000.00,030.6,029.1,000.0,039.0,032.2,30.0,0000.0,0005.04,0003.24,0003.10
2023-06-04 21:50:00,SystemResetWarning,0834.7,5.00,000.00,030.6,029.1,000.0,039.0,032.2,30.0,0000.0,0005.14,0003.27,0003.13
2023-06-04 21:51:00,SystemResetWarning,0834.7,4.99,000.00,030.6,029.1,000.0,039.0,032.2,30.0,0000.0,0005.37,0003.32,0003.17
2023-06-04 21:52:00,SystemResetWarning,0834.7,5.00,000.00,030.6,029.1,000.0,039.0,032.2,30.2,0000.0,0005.42,0003.35,0003.20
2023-06-04 21:53:00,SystemResetWarning,0834.7,5.00,000.00,030.6,029.1,000.0,039.0,032.2,30.2,0000.0,0005.48,0003.37,0003.22
2023-06-04 21:54:00,SystemResetWarning,0834.8,5.00,000.00,030.6,029.1,000.0,039.0,032.2,30.4,0000.0,0005.60,0003.38,0003.22
2023-06-04 21:55:00,SystemResetWarning,0834.7,5.01,000.00,030.6,029.1,000.0,039.0,032.2,30.3,0000.0,0005.62,0003.39,0003.23
2023-06-04 21:56:00,SystemResetWarning,0834.7,5.00,000.00,030.6,029.1,000.0,039.0,032.2,30.0,0000.0,0005.52,0003.37,0003.24
2023-06-04 21:57:00,SystemResetWarning,0834.7,5.00,000.00,030.6,029.1,000.0,039.0,032.2,29.7,0000.0,0005.55,0003.38,0003.24
2023-06-04 21:58:00,SystemResetWarning,0834.7,5.00,000.00,030.6,029.1,000.0,039.0,032.2,30.0,0000.0,0006.16,0003.38,0003.23
2023-06-04 21:59:00,SystemResetWarning,0834.7,5.00,000.00,030.6,029.2,000.0,039.0,032.2,30.0,0000.0,0005.36,0003.36,0003.22
